LAN435 SAME-SCEL

Flight info

Callsign LAN435
Flight time 0h 29m
Altitude 24000
Route UMKAL2C UMKAL UMKAL7C
Aircraft A320/M-SDE3FGHIRWY/LB1

Departure

Time 2026-05-06 19:27
Airport Governor Francisco Gabrielli International Airport (SAME)

Arrival

Time 2026-05-06 19:56
Airport Comodoro Arturo Merino Benítez International Airport (SCEL)
Time Latitude Longitude Altitude Speed Heading
2026-05-06 19:03 -32.82801 -68.79780 2416 ft 0 kts 271°
2026-05-06 19:17 -32.82799 -68.79739 2415 ft 4 kts 253°
2026-05-06 19:18 -32.82787 -68.79713 2418 ft 4 kts 210°
2026-05-06 19:18 -32.82777 -68.79708 2419 ft 0 kts 181°
2026-05-06 19:22 -32.82792 -68.79708 2419 ft 5 kts 181°
2026-05-06 19:22 -32.82859 -68.79708 2413 ft 12 kts 181°
2026-05-06 19:22 -32.82927 -68.79683 2413 ft 11 kts 95°
2026-05-06 19:22 -32.82952 -68.79600 2413 ft 11 kts 129°
2026-05-06 19:23 -32.83013 -68.79536 2413 ft 12 kts 141°
2026-05-06 19:23 -32.83093 -68.79509 2414 ft 13 kts 182°
2026-05-06 19:23 -32.83186 -68.79514 2413 ft 14 kts 181°
2026-05-06 19:23 -32.83290 -68.79517 2413 ft 16 kts 181°
2026-05-06 19:24 -32.83403 -68.79519 2416 ft 17 kts 181°
2026-05-06 19:24 -32.83526 -68.79519 2416 ft 18 kts 179°
2026-05-06 19:24 -32.83657 -68.79524 2416 ft 19 kts 185°
2026-05-06 19:24 -32.83796 -68.79528 2416 ft 21 kts 181°
2026-05-06 19:25 -32.83944 -68.79532 2416 ft 22 kts 181°
2026-05-06 19:25 -32.84086 -68.79494 2416 ft 21 kts 152°
2026-05-06 19:25 -32.84223 -68.79437 2416 ft 18 kts 160°
2026-05-06 19:25 -32.84305 -68.79380 2417 ft 10 kts 149°
2026-05-06 19:26 -32.84337 -68.79330 2417 ft 7 kts 70°
2026-05-06 19:26 -32.84312 -68.79316 2416 ft 0 kts
2026-05-06 19:26 -32.84163 -68.79313 2416 ft 55 kts
2026-05-06 19:26 -32.83561 -68.79303 2412 ft 115 kts
2026-05-06 19:27 -32.82604 -68.79287 2419 ft 159 kts
2026-05-06 19:27 -32.81456 -68.79254 2796 ft 166 kts 350°
2026-05-06 19:27 -32.80293 -68.79229 3380 ft 169 kts 352°
2026-05-06 19:27 -32.79092 -68.79196 3832 ft 179 kts 352°
2026-05-06 19:28 -32.77800 -68.79168 4140 ft 192 kts 352°
2026-05-06 19:28 -32.76400 -68.78861 4380 ft 227 kts 22°
2026-05-06 19:28 -32.75259 -68.77392 4688 ft 260 kts 62°
2026-05-06 19:28 -32.74851 -68.75284 5433 ft 266 kts 81°
2026-05-06 19:29 -32.74651 -68.73101 6242 ft 265 kts 79°
2026-05-06 19:29 -32.74437 -68.70911 6908 ft 271 kts 88°
2026-05-06 19:29 -32.74854 -68.68717 7560 ft 278 kts 118°
2026-05-06 19:29 -32.76051 -68.66947 8232 ft 276 kts 147°
2026-05-06 19:30 -32.77745 -68.65975 8916 ft 268 kts 175°
2026-05-06 19:30 -32.79559 -68.65946 9605 ft 258 kts 201°
2026-05-06 19:30 -32.81153 -68.66767 10258 ft 245 kts 225°
2026-05-06 19:30 -32.82301 -68.68192 10947 ft 235 kts 245°
2026-05-06 19:31 -32.82898 -68.69959 11625 ft 230 kts 264°
2026-05-06 19:31 -32.83027 -68.71932 11881 ft 250 kts 271°
2026-05-06 19:31 -32.83176 -68.76451 12237 ft 296 kts 270°
2026-05-06 19:32 -32.83266 -68.78958 12634 ft 308 kts 269°
2026-05-06 19:32 -32.83363 -68.81523 13295 ft 312 kts 269°
2026-05-06 19:32 -32.83461 -68.84110 13954 ft 314 kts 269°
2026-05-06 19:32 -32.83557 -68.86711 14650 ft 316 kts 267°
2026-05-06 19:33 -32.83654 -68.89331 15302 ft 318 kts 267°
2026-05-06 19:33 -32.83749 -68.91960 15874 ft 320 kts 267°
2026-05-06 19:33 -32.83843 -68.94592 16296 ft 324 kts 267°
2026-05-06 19:33 -32.83940 -68.97268 16969 ft 324 kts 267°
2026-05-06 19:34 -32.84038 -68.99950 17579 ft 326 kts 267°
2026-05-06 19:34 -32.84134 -69.02644 18198 ft 327 kts 267°
2026-05-06 19:34 -32.84231 -69.05343 18780 ft 328 kts 267°
2026-05-06 19:34 -32.84335 -69.08056 19390 ft 328 kts 266°
2026-05-06 19:35 -32.84434 -69.10757 20104 ft 327 kts 268°
2026-05-06 19:35 -32.84523 -69.13453 20796 ft 325 kts 267°
2026-05-06 19:35 -32.84610 -69.16131 21475 ft 324 kts 267°
2026-05-06 19:35 -32.84703 -69.18801 22185 ft 323 kts 267°
2026-05-06 19:36 -32.84820 -69.21464 22987 ft 322 kts 265°
2026-05-06 19:36 -32.84949 -69.24126 23505 ft 322 kts 265°
2026-05-06 19:36 -32.85084 -69.26789 23770 ft 321 kts 266°
2026-05-06 19:36 -32.85216 -69.29410 23825 ft 310 kts 266°
2026-05-06 19:37 -32.85338 -69.31922 23839 ft 302 kts 266°
2026-05-06 19:37 -32.85456 -69.34405 23835 ft 299 kts 266°
2026-05-06 19:37 -32.85574 -69.36916 23839 ft 312 kts 266°
2026-05-06 19:37 -32.85654 -69.38641 23840 ft 321 kts 266°
2026-05-06 19:38 -32.85820 -69.42292 23888 ft 339 kts 266°
2026-05-06 19:38 -32.85949 -69.45142 23890 ft 350 kts 266°
2026-05-06 19:38 -32.86081 -69.48088 23888 ft 364 kts 266°
2026-05-06 19:38 -32.86216 -69.51133 23887 ft 372 kts 266°
2026-05-06 19:39 -32.86356 -69.54244 23956 ft 381 kts 266°
2026-05-06 19:39 -32.86499 -69.57411 23945 ft 386 kts 266°
2026-05-06 19:39 -32.86644 -69.60609 23940 ft 387 kts 266°
2026-05-06 19:39 -32.86787 -69.63803 23945 ft 387 kts 266°
2026-05-06 19:40 -32.86926 -69.66998 23983 ft 387 kts 266°
2026-05-06 19:40 -32.87065 -69.70202 23971 ft 388 kts 267°
2026-05-06 19:40 -32.87205 -69.73399 23981 ft 387 kts 266°
2026-05-06 19:40 -32.87345 -69.76603 23978 ft 388 kts 266°
2026-05-06 19:41 -32.87484 -69.79790 24012 ft 385 kts 266°
2026-05-06 19:41 -32.87621 -69.82972 24013 ft 384 kts 266°
2026-05-06 19:41 -32.87756 -69.86153 24011 ft 385 kts 266°
2026-05-06 19:41 -32.87888 -69.89341 23984 ft 387 kts 267°
2026-05-06 19:42 -32.88021 -69.92540 23983 ft 387 kts 267°
2026-05-06 19:42 -32.88153 -69.95735 24022 ft 387 kts 267°
2026-05-06 19:42 -32.88286 -69.98932 24023 ft 387 kts 268°
2026-05-06 19:42 -32.88140 -70.02130 24037 ft 389 kts 275°
2026-05-06 19:43 -32.87848 -70.05341 23944 ft 391 kts 275°
2026-05-06 19:43 -32.87554 -70.08552 23721 ft 390 kts 275°
2026-05-06 19:43 -32.87260 -70.11758 23447 ft 390 kts 275°
2026-05-06 19:43 -32.86965 -70.14965 23011 ft 389 kts 275°
2026-05-06 19:44 -32.86673 -70.18151 22558 ft 386 kts 275°
2026-05-06 19:44 -32.86380 -70.21316 22065 ft 385 kts 275°
2026-05-06 19:44 -32.86083 -70.24499 21687 ft 388 kts 275°
2026-05-06 19:44 -32.85833 -70.27685 21017 ft 387 kts 270°
2026-05-06 19:45 -32.86216 -70.30845 19983 ft 389 kts 254°
2026-05-06 19:45 -32.87232 -70.33808 19029 ft 394 kts 249°
2026-05-06 19:45 -32.88339 -70.36813 18471 ft 387 kts 249°
2026-05-06 19:45 -32.89396 -70.39682 17879 ft 379 kts 249°
2026-05-06 19:46 -32.90441 -70.42521 17744 ft 361 kts 249°
2026-05-06 19:46 -32.91429 -70.45224 17395 ft 353 kts 249°
2026-05-06 19:46 -32.92372 -70.47817 17228 ft 334 kts 249°
2026-05-06 19:46 -32.93262 -70.50258 17098 ft 309 kts 249°
2026-05-06 19:47 -32.94090 -70.52528 16857 ft 291 kts 250°
2026-05-06 19:47 -32.94875 -70.54692 16671 ft 280 kts 250°
2026-05-06 19:47 -32.95633 -70.56788 16225 ft 277 kts 250°
2026-05-06 19:47 -32.96400 -70.58924 15367 ft 284 kts 250°
2026-05-06 19:48 -32.97184 -70.61108 14528 ft 290 kts 250°
2026-05-06 19:48 -32.97987 -70.63350 13377 ft 301 kts 249°
2026-05-06 19:48 -32.98837 -70.65716 11939 ft 319 kts 249°
2026-05-06 19:48 -32.99716 -70.68153 11060 ft 318 kts 249°
2026-05-06 19:49 -33.00567 -70.70490 10760 ft 298 kts 249°
2026-05-06 19:49 -33.01376 -70.72710 10306 ft 287 kts 250°
2026-05-06 19:49 -33.02166 -70.74893 9447 ft 288 kts 250°
2026-05-06 19:49 -33.02974 -70.77142 8208 ft 302 kts 250°
2026-05-06 19:50 -33.03911 -70.79379 7678 ft 294 kts 237°
2026-05-06 19:50 -33.05327 -70.81005 7670 ft 280 kts 216°
2026-05-06 19:50 -33.07143 -70.81880 7375 ft 288 kts 190°
2026-05-06 19:50 -33.09125 -70.81885 7000 ft 282 kts 180°
2026-05-06 19:51 -33.11055 -70.81770 6640 ft 274 kts 180°
2026-05-06 19:51 -33.12926 -70.81666 6277 ft 265 kts 180°
2026-05-06 19:51 -33.14734 -70.81570 5926 ft 255 kts 180°
2026-05-06 19:51 -33.16475 -70.81478 5585 ft 246 kts 181°
2026-05-06 19:52 -33.17588 -70.81419 5376 ft 239 kts 181°
2026-05-06 19:52 -33.19216 -70.81332 5059 ft 230 kts 181°
2026-05-06 19:52 -33.20782 -70.81248 4765 ft 221 kts 180°
2026-05-06 19:52 -33.22286 -70.81168 4514 ft 211 kts 179°
2026-05-06 19:53 -33.23733 -70.81091 4207 ft 204 kts 179°
2026-05-06 19:53 -33.25126 -70.81017 3927 ft 197 kts 179°
2026-05-06 19:53 -33.26473 -70.80945 3664 ft 189 kts 179°
2026-05-06 19:53 -33.27763 -70.80876 3428 ft 182 kts 179°
2026-05-06 19:54 -33.29004 -70.80810 3185 ft 174 kts 179°
2026-05-06 19:54 -33.30173 -70.80747 2952 ft 163 kts 178°
2026-05-06 19:54 -33.31282 -70.80688 2748 ft 156 kts 177°
2026-05-06 19:54 -33.32342 -70.80631 2561 ft 148 kts 177°
2026-05-06 19:55 -33.33364 -70.80574 2334 ft 145 kts 175°
2026-05-06 19:55 -33.34360 -70.80517 2125 ft 144 kts 174°
2026-05-06 19:55 -33.35359 -70.80465 1927 ft 145 kts 173°
2026-05-06 19:55 -33.36361 -70.80413 1764 ft 144 kts 174°
2026-05-06 19:56 -33.37362 -70.80362 1609 ft 143 kts 174°
2026-05-06 19:56 -33.38298 -70.80306 1573 ft 117 kts 178°
2026-05-06 19:56 -33.38941 -70.80279 1574 ft 68 kts 176°
2026-05-06 19:56 -33.39241 -70.80244 1572 ft 26 kts 160°
2026-05-06 19:57 -33.39401 -70.80146 1569 ft 26 kts 147°
2026-05-06 19:57 -33.39504 -70.80047 1566 ft 9 kts 110°
2026-05-06 19:57 -33.39530 -70.79968 1565 ft 10 kts 101°
2026-05-06 19:57 -33.39527 -70.79879 1565 ft 8 kts 85°
2026-05-06 19:58 -33.39525 -70.79799 1565 ft 12 kts 89°
2026-05-06 19:58 -33.39524 -70.79685 1564 ft 15 kts 88°
2026-05-06 19:58 -33.39514 -70.79545 1564 ft 19 kts 85°
2026-05-06 19:58 -33.39506 -70.79372 1564 ft 23 kts 88°
2026-05-06 19:59 -33.39499 -70.79168 1564 ft 26 kts 88°